When you browse on this site, cookies collect data to enhance your experience and personalize the content and advertising you see.
Visit our Privacy Policy to learn more. By continuing to use the site, you agree to this use of cookies and data.
  • In Österreich
  • Länderverzeichnis
  • Für 7 Tage
  • Wassertemperatur
  • Wetterkarte
  • News
  • Widgets
  • user-avatar
    Anmelden

    Stündliche Wetter Schumen

    Heute, 24 Oktober, Donnerstag

    Zeit Temperatur Niederschläge Wind Luftdruck Luftfeuchtigkeit
    00:00 +13°C° 0 mm 1 m/S 734 mmHg 73%
    01:00 +13°C° 0 mm 1 m/S 734 mmHg 75%
    02:00 +12°C° 0 mm 1 m/S 734 mmHg 78%
    03:00 +12°C° 0 mm 1 m/S 734 mmHg 77%
    04:00 +12°C° 0 mm 1 m/S 734 mmHg 77%
    05:00 +10°C° 0 mm 0 m/S 734 mmHg 76%
    06:00 +11°C° 0 mm 0 m/S 734 mmHg 73%
    07:00 +12°C° 0 mm 0 m/S 734 mmHg 69%
    08:00 +14°C° 0 mm 1 m/S 734 mmHg 65%
    09:00 +16°C° 0 mm 1 m/S 734 mmHg 55%
    10:00 +20°C° 0 mm 1 m/S 734 mmHg 45%
    11:00 +21°C° 0 mm 2 m/S 734 mmHg 35%
    12:00 +23°C° 0 mm 2 m/S 734 mmHg 32%
    13:00 +24°C° 0 mm 2 m/S 734 mmHg 30%
    14:00 +24°C° 0 mm 2 m/S 734 mmHg 28%
    15:00 +23°C° 0 mm 2 m/S 733 mmHg 34%
    16:00 +20°C° 0 mm 2 m/S 733 mmHg 40%
    17:00 +18°C° 0 mm 2 m/S 732 mmHg 46%
    18:00 +17°C° 0 mm 2 m/S 732 mmHg 53%
    19:00 +16°C° 0 mm 2 m/S 732 mmHg 61%
    20:00 +14°C° 0 mm 1 m/S 732 mmHg 68%
    21:00 +14°C° 0 mm 1 m/S 732 mmHg 72%
    22:00 +13°C° 0 mm 1 m/S 732 mmHg 75%
    23:00 +13°C° 0 mm 1 m/S 732 mmHg 79%

    Morgen, 25 Oktober, Freitag

    Zeit Temperatur Niederschläge Wind Luftdruck Luftfeuchtigkeit
    00:00 +12°C° 0 mm 1 m/S 732 mmHg 79%
    01:00 +12°C° 0 mm 1 m/S 732 mmHg 80%
    02:00 +12°C° 0 mm 1 m/S 732 mmHg 81%
    03:00 +11°C° 0 mm 1 m/S 732 mmHg 79%
    04:00 +11°C° 0 mm 1 m/S 732 mmHg 78%
    05:00 +11°C° 0 mm 1 m/S 731 mmHg 77%
    06:00 +12°C° 0 mm 1 m/S 732 mmHg 73%
    07:00 +12°C° 0 mm 1 m/S 732 mmHg 68%
    08:00 +13°C° 0 mm 1 m/S 733 mmHg 64%
    09:00 +16°C° 0 mm 1 m/S 733 mmHg 55%
    10:00 +19°C° 0 mm 1 m/S 733 mmHg 46%
    11:00 +20°C° 0 mm 2 m/S 733 mmHg 36%
    12:00 +21°C° 0 mm 2 m/S 733 mmHg 33%
    13:00 +23°C° 0 mm 2 m/S 733 mmHg 30%
    14:00 +24°C° 0 mm 2 m/S 733 mmHg 27%
    15:00 +23°C° 0 mm 2 m/S 733 mmHg 33%
    16:00 +20°C° 0 mm 2 m/S 733 mmHg 38%
    17:00 +18°C° 0 mm 2 m/S 732 mmHg 44%
    18:00 +18°C° 0 mm 1 m/S 733 mmHg 50%
    19:00 +16°C° 0 mm 1 m/S 733 mmHg 57%
    20:00 +14°C° 0 mm 1 m/S 733 mmHg 63%
    21:00 +14°C° 0 mm 1 m/S 733 mmHg 65%
    22:00 +12°C° 0 mm 0 m/S 734 mmHg 67%
    23:00 +12°C° 0 mm 0 m/S 734 mmHg 70%

    übermorgen, 26 Oktober, Samstag

    Zeit Temperatur Niederschläge Wind Luftdruck Luftfeuchtigkeit
    00:00 +12°C° 0 mm 0 m/S 734 mmHg 70%
    01:00 +11°C° 0 mm 0 m/S 734 mmHg 70%
    02:00 +11°C° 0 mm 0 m/S 734 mmHg 70%
    03:00 +11°C° 0 mm 0 m/S 734 mmHg 70%
    04:00 +11°C° 0 mm 0 m/S 734 mmHg 69%
    05:00 +11°C° 0 mm 0 m/S 734 mmHg 69%
    06:00 +11°C° 0 mm 0 m/S 735 mmHg 65%
    07:00 +12°C° 0 mm 0 m/S 735 mmHg 61%
    08:00 +13°C° 0 mm 0 m/S 735 mmHg 58%
    09:00 +16°C° 0 mm 1 m/S 736 mmHg 51%
    10:00 +20°C° 0 mm 1 m/S 736 mmHg 44%
    11:00 +22°C° 0 mm 1 m/S 736 mmHg 37%
    12:00 +23°C° 0 mm 1 m/S 736 mmHg 34%
    13:00 +23°C° 0 mm 1 m/S 736 mmHg 32%
    14:00 +24°C° 0 mm 1 m/S 736 mmHg 29%
    15:00 +23°C° 0 mm 1 m/S 735 mmHg 32%
    16:00 +21°C° 0 mm 1 m/S 735 mmHg 36%
    17:00 +20°C° 0 mm 1 m/S 735 mmHg 39%
    18:00 +19°C° 0 mm 1 m/S 735 mmHg 43%
    19:00 +16°C° 0 mm 1 m/S 735 mmHg 46%
    20:00 +15°C° 0 mm 1 m/S 735 mmHg 50%
    21:00 +14°C° 0 mm 0 m/S 735 mmHg 51%
    22:00 +13°C° 0 mm 0 m/S 735 mmHg 53%
    23:00 +13°C° 0 mm 0 m/S 735 mmHg 55%

    27 Oktober, Sonntag

    Zeit Temperatur Niederschläge Wind Luftdruck Luftfeuchtigkeit
    00:00 +12°C° 0 mm 0 m/S 735 mmHg 56%
    01:00 +12°C° 0 mm 0 m/S 735 mmHg 56%
    02:00 +12°C° 0 mm 0 m/S 735 mmHg 57%
    03:00 +11°C° 0 mm 0 m/S 734 mmHg 58%
    04:00 +11°C° 0 mm 0 m/S 734 mmHg 58%
    05:00 +11°C° 0 mm 0 m/S 734 mmHg 59%
    06:00 +12°C° 0 mm 0 m/S 734 mmHg 56%
    07:00 +13°C° 0 mm 0 m/S 734 mmHg 54%
    08:00 +13°C° 0 mm 0 m/S 735 mmHg 52%
    09:00 +16°C° 0 mm 0 m/S 735 mmHg 46%
    10:00 +18°C° 0 mm 0 m/S 735 mmHg 40%
    11:00 +20°C° 0 mm 0 m/S 735 mmHg 34%
    12:00 +21°C° 0 mm 0 m/S 735 mmHg 33%
    13:00 +24°C° 0 mm 1 m/S 734 mmHg 31%
    14:00 +24°C° 0 mm 1 m/S 734 mmHg 29%
    15:00 +23°C° 0 mm 1 m/S 734 mmHg 33%
    16:00 +21°C° 0 mm 1 m/S 733 mmHg 37%
    17:00 +20°C° 0 mm 1 m/S 733 mmHg 41%
    18:00 +19°C° 0 mm 1 m/S 733 mmHg 45%
    19:00 +16°C° 0 mm 1 m/S 733 mmHg 49%
    20:00 +15°C° 0 mm 1 m/S 732 mmHg 53%
    21:00 +14°C° 0 mm 1 m/S 732 mmHg 56%
    22:00 +14°C° 0 mm 1 m/S 732 mmHg 59%
    23:00 +13°C° 0 mm 1 m/S 732 mmHg 62%

    28 Oktober, Montag

    Zeit Temperatur Niederschläge Wind Luftdruck Luftfeuchtigkeit
    00:00 +13°C° 0 mm 1 m/S 732 mmHg 64%
    01:00 +12°C° 0 mm 1 m/S 731 mmHg 66%
    02:00 +12°C° 0 mm 1 m/S 731 mmHg 68%
    03:00 +12°C° 0 mm 1 m/S 731 mmHg 69%
    04:00 +11°C° 0 mm 1 m/S 731 mmHg 70%
    05:00 +11°C° 0 mm 1 m/S 730 mmHg 71%
    06:00 +12°C° 0 mm 1 m/S 730 mmHg 68%
    07:00 +13°C° 0 mm 1 m/S 730 mmHg 65%
    08:00 +13°C° 0 mm 1 m/S 730 mmHg 62%
    09:00 +16°C° 0 mm 1 m/S 730 mmHg 53%
    10:00 +19°C° 0 mm 1 m/S 730 mmHg 45%
    11:00 +20°C° 0 mm 2 m/S 730 mmHg 36%
    12:00 +21°C° 0 mm 2 m/S 730 mmHg 33%
    13:00 +23°C° 0 mm 2 m/S 730 mmHg 30%
    14:00 +24°C° 0 mm 2 m/S 729 mmHg 28%
    15:00 +21°C° 0 mm 2 m/S 729 mmHg 33%
    16:00 +20°C° 0 mm 2 m/S 729 mmHg 38%
    17:00 +18°C° 0 mm 2 m/S 728 mmHg 43%
    18:00 +17°C° 0 mm 2 m/S 728 mmHg 49%
    19:00 +15°C° 0 mm 2 m/S 728 mmHg 56%
    20:00 +14°C° 0 mm 1 m/S 728 mmHg 63%
    21:00 +13°C° 0 mm 1 m/S 728 mmHg 67%
    22:00 +13°C° 0 mm 1 m/S 728 mmHg 71%
    23:00 +12°C° 0 mm 1 m/S 729 mmHg 74%

    29 Oktober, Dienstag

    Zeit Temperatur Niederschläge Wind Luftdruck Luftfeuchtigkeit
    00:00 +12°C° 0 mm 1 m/S 728 mmHg 75%
    01:00 +12°C° 0 mm 1 m/S 728 mmHg 77%
    02:00 +11°C° 0 mm 1 m/S 728 mmHg 78%
    03:00 +11°C° 0 mm 1 m/S 728 mmHg 77%
    04:00 +11°C° 0 mm 1 m/S 728 mmHg 77%
    05:00 +10°C° 0 mm 0 m/S 728 mmHg 76%
    06:00 +11°C° 0 mm 0 m/S 728 mmHg 73%
    07:00 +12°C° 0 mm 0 m/S 728 mmHg 70%
    08:00 +12°C° 0 mm 0 m/S 729 mmHg 67%
    09:00 +14°C° 0 mm 0 m/S 729 mmHg 57%
    10:00 +19°C° 0 mm 1 m/S 729 mmHg 48%
    11:00 +21°C° 0 mm 1 m/S 729 mmHg 39%
    12:00 +22°C° 0 mm 1 m/S 729 mmHg 36%
    13:00 +23°C° 0 mm 1 m/S 729 mmHg 32%
    14:00 +23°C° 0 mm 1 m/S 729 mmHg 29%
    15:00 +22°C° 0 mm 1 m/S 729 mmHg 32%
    16:00 +20°C° 0 mm 1 m/S 728 mmHg 35%
    17:00 +19°C° 0 mm 1 m/S 728 mmHg 39%
    18:00 +18°C° 0 mm 1 m/S 728 mmHg 43%
    19:00 +14°C° 0 mm 0 m/S 728 mmHg 47%
    20:00 +13°C° 0 mm 0 m/S 728 mmHg 51%
    21:00 +13°C° 0 mm 0 m/S 728 mmHg 52%
    22:00 +12°C° 0 mm 0 m/S 728 mmHg 54%
    23:00 +12°C° 0 mm 0 m/S 728 mmHg 56%

    30 Oktober, Mittwoch

    Zeit Temperatur Niederschläge Wind Luftdruck Luftfeuchtigkeit
    00:00 +12°C° 0 mm 0 m/S 728 mmHg 55%
    01:00 +11°C° 0 mm 0 m/S 728 mmHg 55%
    02:00 +12°C° 0 mm 1 m/S 728 mmHg 55%
    03:00 +12°C° 0 mm 1 m/S 728 mmHg 54%
    04:00 +10°C° 0 mm 0 m/S 728 mmHg 54%
    05:00 +10°C° 0 mm 0 m/S 728 mmHg 53%
    06:00 +11°C° 0 mm 0 m/S 728 mmHg 51%
    07:00 +12°C° 0 mm 0 m/S 728 mmHg 48%
    08:00 +12°C° 0 mm 0 m/S 728 mmHg 46%
    09:00 +15°C° 0 mm 0 m/S 728 mmHg 40%
    10:00 +17°C° 0 mm 0 m/S 729 mmHg 34%
    11:00 +20°C° 0 mm 0 m/S 729 mmHg 29%
    12:00 +20°C° 0 mm 0 m/S 729 mmHg 27%
    13:00 +21°C° 0 mm 0 m/S 728 mmHg 26%
    14:00 +23°C° 0 mm 1 m/S 728 mmHg 24%
    15:00 +22°C° 0 mm 1 m/S 728 mmHg 28%
    16:00 +20°C° 0 mm 1 m/S 727 mmHg 31%
    17:00 +19°C° 0 mm 1 m/S 727 mmHg 34%
    18:00 +18°C° 0 mm 1 m/S 727 mmHg 37%
    19:00 +16°C° 0 mm 1 m/S 727 mmHg 40%
    20:00 +15°C° 0 mm 1 m/S 727 mmHg 43%
    21:00 +14°C° 0 mm 1 m/S 727 mmHg 46%
    22:00 +14°C° 0 mm 1 m/S 727 mmHg 48%
    23:00 +13°C° 0 mm 1 m/S 727 mmHg 51%
    Mehr zeigen